STARLINK-1795 (46696 NORAD) Tracking and Keplerian Element Data

This shows tracking and keplerian element data for the satellite.

Feedback or suggestion? Click here.




ElementValue
Catalog46696
NameSTARLINK-1795
Epoch Orbit181
Epoch Day336.91667824
Epoch Year2020
RAAN250.9746
Inclination53.0556
Eccentricity0.0001447
Argument of Perigee56.1312
Mean Anonmoly36.6854
Mean Motion15.62757249
Decay Rate0.00035692
L11 46696U 20073AC 20336.91667824 .00035692 00000-0 39386-3 0 9997
L22 46696 53.0556 250.9746 0001447 56.1312 36.6854 15.62757249 1814

Live tracking and technical data element details for STARLINK-1795 (NORAD 46696). STARLINK-1795 can be tracked NOW for your location showing map with azimuth and elevation plus other details from your city location.

Track the satellite on the map from your city or location and see movement details for azimuth, elevation, latitude, longitude, range, height, and movement on the map or in text.







IsCatalogInMostPopularTable: catalog: 46696, numindb: 9
Update: records affected: 1



GetName: 46696 STARLINK-1795

Hit Count: updated at: Wed, 02 Dec 2020 18:13:03 GMT